Regional Weather Roundup
Issued by NWS

Home | Current Version | Previous Version | Text Only | Print | Product List | Glossary On
Versions: 1 2 3 4 5 6 7 8 9 10 11 12 13 14 15 16 17 18 19 20 21 22 23 24 25 26 27 28
000
ASUS45 KBOI 012110
RWRID

IDAHO REGIONAL WEATHER ROUNDUP
NATIONAL WEATHER SERVICE BOISE ID
300 PM MDT SUN MAY 01 2016

NOTE: "FAIR" INDICATES FEW OR NO CLOUDS BELOW 12000 FEET
WITH NO SIGNIFICANT WEATHER AND/OR OBSTRUCTIONS TO VISIBILITY

IDZ012-014-012200-
SOUTHWEST IDAHO


CITY           SKY/WX    TMP DP  RH WIND       PRES   REMARKS
BOISE          SUNNY     67  36  31 NE5       30.08F
CALDWELL       SUNNY     68  40  35 VRB5      30.09F
MOUNTAIN HOME  SUNNY     70  33  25 E20G29    30.05F
$$

IDZ016-017-012200-
SOUTHCENTRAL IDAHO


CITY           SKY/WX    TMP DP  RH WIND       PRES   REMARKS
BURLEY         MOSUNNY   60  31  33 E17G23    30.08F
JEROME         MOSUNNY   63  28  26 NE22G28   30.10F
TWIN FALLS     MOSUNNY   59  30  33 E20G31    30.09F
$$

IDZ019>023-012200-
SOUTHEAST IDAHO


CITY           SKY/WX    TMP DP  RH WIND       PRES   REMARKS
IDAHO FALLS    MOSUNNY   60  25  26 N6        30.14F
POCATELLO      MOSUNNY   64  26  23 NE15      30.11F
REXBURG        SUNNY     61  18  18 CALM      30.13F
$$

IDZ006-010-011-018-031-032-012200-
CENTRAL IDAHO MOUNTAINS


CITY           SKY/WX    TMP DP  RH WIND       PRES   REMARKS
MCCALL         CLOUDY    59  31  34 N8        30.11F
HAILEY         MOSUNNY   59  36  41 SE10G18   30.13F
STANLEY          N/A     60  26  27 NW8       30.14F
SALMON         SUNNY     63  34  34 NW10      30.13F
CHALLIS        SUNNY     62  26  25 N6        30.13F
$$

IDZ002-004-006-007-026-012200-
NORTHERN IDAHO


CITY           SKY/WX    TMP DP  RH WIND       PRES   REMARKS
LEWISTON       SUNNY     68  45  43 VRB3      30.09F
LOWELL           N/A     76  40  27 NW3       30.03F
COEUR D`ALENE  SUNNY     70  41  35 NE14      30.10F
MULLAN PASS    SUNNY     54  32  43 CALM      30.21F
$$




USA.gov is the U.S. government's official web portal to all federal, state and local government web resources and services.